| time (UTC) | temp F | wind direction | speed knots | gust knots | rain 1hr in | rain 24hr in | rain mn in | humidity % | barometer mb |
| 20260504214518 | 65 | 251 | 2.6 | 12.2 | 0.00 | 0.00 | 0.00 | 66 | 1014.5 |
| 20260504214018 | 65 | 299 | 5.2 | 12.2 | 0.00 | 0.00 | 0.00 | 67 | 1014.6 |
| 20260504213517 | 65 | 359 | 5.2 | 12.2 | 0.00 | 0.00 | 0.00 | 65 | 1014.6 |
| 20260504213019 | 65 | 253 | 4.3 | 12.2 | 0.00 | 0.00 | 0.00 | 65 | 1014.5 |
| 20260504212739 | 65 | 358 | 5.2 | 12.2 | 0.00 | 0.00 | 0.00 | 66 | 1014.5 |
| 20260504212018 | 65 | 247 | 3.5 | 12.2 | 0.00 | 0.00 | 0.00 | 64 | 1014.6 |
| 20260504211517 | 65 | 355 | 7.0 | 12.2 | 0.00 | 0.00 | 0.00 | 66 | 1014.6 |
| 20260504211018 | 65 | 276 | 4.3 | 13.9 | 0.00 | 0.00 | 0.00 | 64 | 1014.7 |
| 20260504210518 | 65 | 248 | 3.5 | 14.8 | 0.00 | 0.00 | 0.00 | 66 | 1014.7 |
| 20260504210243 | 65 | 349 | 8.7 | 14.8 | 0.00 | 0.00 | 0.00 | 66 | 1014.6 |
| 20260504205516 | 65 | 263 | 3.5 | 13.9 | 0.00 | 0.00 | 0.00 | 65 | 1014.7 |
| 20260504205017 | 65 | 286 | 5.2 | 13.9 | 0.00 | 0.00 | 0.00 | 65 | 1014.7 |
| 20260504204518 | 65 | 346 | 6.1 | 13.9 | 0.00 | 0.00 | 0.00 | 68 | 1014.6 |
| 20260504204016 | 65 | 230 | 4.3 | 11.3 | 0.00 | 0.00 | 0.00 | 67 | 1014.7 |
| 20260504203733 | 65 | 262 | 4.3 | 10.4 | 0.00 | 0.00 | 0.00 | 67 | 1014.7 |
| 20260504203016 | 65 | 341 | 6.1 | 10.4 | 0.00 | 0.00 | 0.00 | 67 | 1014.7 |
| 20260504202517 | 65 | 254 | 0.9 | 12.2 | 0.00 | 0.00 | 0.00 | 67 | 1014.5 |
| 20260504202016 | 65 | 341 | 4.3 | 12.2 | 0.00 | 0.00 | 0.00 | 65 | 1014.5 |
| 20260504201515 | 65 | 309 | 4.3 | 11.3 | 0.00 | 0.00 | 0.00 | 66 | 1014.6 |
| 20260504201017 | 65 | 258 | 2.6 | 11.3 | 0.00 | 0.00 | 0.00 | 65 | 1014.6 |
| 20260504200517 | 65 | 310 | 5.2 | 13.9 | 0.00 | 0.00 | 0.00 | 64 | 1014.6 |
| 20260504200017 | 64 | 333 | 4.3 | 13.9 | 0.00 | 0.00 | 0.00 | 65 | 1014.7 |
| 20260504195516 | 64 | 324 | 10.4 | 13.0 | 0.00 | 0.00 | 0.00 | 64 | 1014.6 |
| 20260504195015 | 64 | 330 | 4.3 | 13.0 | 0.00 | 0.00 | 0.00 | 64 | 1014.7 |
| 20260504194737 | 64 | 341 | 6.1 | 13.9 | 0.00 | 0.00 | 0.00 | 67 | 1014.8 |
| 20260504194016 | 64 | 342 | 7.8 | 13.9 | 0.00 | 0.00 | 0.00 | 69 | 1014.7 |
| 20260504193515 | 64 | 272 | 7.0 | 15.6 | 0.00 | 0.00 | 0.00 | 67 | 1014.9 |
| 20260504193239 | 64 | 359 | 7.0 | 15.6 | 0.00 | 0.00 | 0.00 | 68 | 1014.9 |
| 20260504192518 | 64 | 332 | 8.7 | 12.2 | 0.00 | 0.00 | 0.00 | 67 | 1014.9 |
| 20260504192015 | 64 | 273 | 7.0 | 12.2 | 0.00 | 0.00 | 0.00 | 66 | 1015.0 |
| 20260504191514 | 64 | 330 | 7.0 | 12.2 | 0.00 | 0.00 | 0.00 | 66 | 1015.0 |
| 20260504191015 | 64 | 331 | 5.2 | 12.2 | 0.00 | 0.00 | 0.00 | 65 | 1014.9 |
| 20260504190515 | 64 | 327 | 8.7 | 14.8 | 0.00 | 0.00 | 0.00 | 65 | 1015.0 |
| 20260504190015 | 64 | 317 | 5.2 | 13.0 | 0.00 | 0.00 | 0.00 | 65 | 1014.9 |
| 20260504185514 | 64 | 348 | 4.3 | 13.0 | 0.00 | 0.00 | 0.00 | 68 | 1015.0 |
| 20260504185014 | 64 | 266 | 5.2 | 15.6 | 0.00 | 0.00 | 0.00 | 69 | 1014.9 |
| 20260504184515 | 65 | 347 | 12.2 | 15.6 | 0.00 | 0.00 | 0.00 | 67 | 1015.0 |
| 20260504184016 | 65 | 4 | 7.0 | 12.2 | 0.00 | 0.00 | 0.00 | 66 | 1015.0 |
| 20260504183514 | 65 | 252 | 2.6 | 10.4 | 0.00 | 0.00 | 0.00 | 66 | 1015.3 |
| 20260504183014 | 65 | 316 | 1.7 | 12.2 | 0.00 | 0.00 | 0.00 | 68 | 1015.1 |
| 20260504182516 | 65 | 270 | 4.3 | 12.2 | 0.00 | 0.00 | 0.00 | 64 | 1015.2 |
| 20260504182014 | 65 | 357 | 3.5 | 7.8 | 0.00 | 0.00 | 0.00 | 63 | 1015.2 |
| 20260504181513 | 64 | 269 | 4.3 | 8.7 | 0.00 | 0.00 | 0.00 | 60 | 1015.2 |
| 20260504181014 | 64 | 302 | 3.5 | 8.7 | 0.00 | 0.00 | 0.00 | 64 | 1015.2 |
| 20260504180514 | 64 | 258 | 4.3 | 8.7 | 0.00 | 0.00 | 0.00 | 63 | 1015.2 |
| 20260504180015 | 64 | 329 | 4.3 | 7.8 | 0.00 | 0.00 | 0.00 | 65 | 1015.1 |
| 20260504175513 | 64 | 348 | 4.3 | 7.8 | 0.00 | 0.00 | 0.00 | 63 | 1015.2 |
| 20260504175014 | 64 | 323 | 4.3 | 10.4 | 0.00 | 0.00 | 0.00 | 65 | 1015.0 |
| 20260504174514 | 64 | 260 | 4.3 | 10.4 | 0.00 | 0.00 | 0.00 | 64 | 1014.9 |
| 20260504174013 | 64 | 355 | 2.6 | 10.4 | 0.00 | 0.00 | 0.00 | 65 | 1014.9 |
| 20260504173512 | 64 | 274 | 5.2 | 13.0 | 0.00 | 0.00 | 0.00 | 62 | 1015.0 |
| 20260504173012 | 64 | 252 | 2.6 | 13.0 | 0.00 | 0.00 | 0.00 | 67 | 1015.0 |
| 20260504172512 | 64 | 353 | 5.2 | 8.7 | 0.00 | 0.00 | 0.00 | 66 | 1015.0 |
| 20260504172013 | 63 | 295 | 4.3 | 8.7 | 0.00 | 0.00 | 0.00 | 65 | 1015.0 |
| 20260504171512 | 64 | 13 | 3.5 | 11.3 | 0.00 | 0.00 | 0.00 | 65 | 1014.9 |
| 20260504171011 | 63 | 293 | 4.3 | 11.3 | 0.00 | 0.00 | 0.00 | 64 | 1014.9 |
| 20260504170512 | 63 | 359 | 8.7 | 11.3 | 0.00 | 0.00 | 0.00 | 65 | 1014.7 |
| 20260504151009 | 60 | 320 | 1.7 | 5.2 | 0.00 | 0.00 | 0.00 | 69 | 1014.2 |
| 20260504150509 | 60 | 269 | 0.9 | 4.3 | 0.00 | 0.00 | 0.00 | 70 | 1014.2 |
| 20260504141009 | 58 | 274 | 0.0 | 2.6 | 0.00 | 0.00 | 0.00 | 75 | 1013.9 |
| 20260504140508 | 58 | 245 | 0.9 | 1.7 | 0.00 | 0.00 | 0.00 | 76 | 1014.0 |
| 20260504130507 | 58 | 258 | 0.0 | 1.7 | 0.00 | 0.00 | 0.00 | 76 | 1013.6 |
| 20260504110504 | 59 | 325 | 3.5 | 10.4 | 0.00 | 0.00 | 0.00 | 74 | 1013.5 |
| 20260504100504 | 59 | 334 | 2.6 | 5.2 | 0.00 | 0.00 | 0.00 | 75 | 1013.2 |
| 20260504081736 | 60 | 338 | 5.2 | 12.2 | 0.00 | 0.00 | 0.00 | 77 | 1013.8 |
| 20260504081238 | 60 | 342 | 8.7 | 10.4 | 0.00 | 0.00 | 0.00 | 77 | 1014.0 |
| 20260504080238 | 60 | 334 | 7.0 | 8.7 | 0.00 | 0.00 | 0.00 | 76 | 1014.1 |
| 20260504070237 | 61 | 274 | 3.5 | 12.2 | 0.00 | 0.00 | 0.00 | 76 | 1014.4 |
| 20260504060235 | 61 | 285 | 1.7 | 5.2 | 0.00 | 0.00 | 0.00 | 76 | 1013.8 |
| 20260504050733 | 61 | 321 | 4.3 | 6.1 | 0.00 | 0.00 | 0.00 | 74 | 1013.4 |
| 20260504050233 | 61 | 323 | 2.6 | 5.2 | 0.00 | 0.00 | 0.00 | 74 | 1013.6 |
| 20260504045733 | 61 | 275 | 0.0 | 5.2 | 0.00 | 0.00 | 0.00 | 75 | 1013.8 |
| 20260504045234 | 61 | 295 | 1.7 | 5.2 | 0.00 | 0.00 | 0.00 | 75 | 1013.9 |
| 20260504044733 | 61 | 258 | 0.0 | 5.2 | 0.00 | 0.00 | 0.00 | 75 | 1013.7 |
| 20260504044233 | 61 | 271 | 3.5 | 5.2 | 0.00 | 0.00 | 0.00 | 75 | 1013.8 |
| 20260504043734 | 61 | 283 | 1.7 | 5.2 | 0.00 | 0.00 | 0.00 | 75 | 1013.4 |
| 20260504043234 | 61 | 246 | 3.5 | 5.2 | 0.00 | 0.00 | 0.00 | 75 | 1013.6 |
| 20260504042955 | 61 | 230 | 4.3 | 6.1 | 0.00 | 0.00 | 0.00 | 75 | 1013.7 |
| 20260504042452 | 61 | 264 | 4.3 | 6.1 | 0.00 | 0.00 | 0.00 | 75 | 1013.4 |
| 20260504041733 | 61 | 300 | 0.9 | 5.2 | 0.00 | 0.00 | 0.00 | 74 | 1013.3 |
| 20260504041233 | 61 | 266 | 0.9 | 5.2 | 0.00 | 0.00 | 0.00 | 73 | 1013.5 |
| 20260504040732 | 61 | 270 | 3.5 | 5.2 | 0.00 | 0.00 | 0.00 | 74 | 1013.3 |
| 20260504040232 | 61 | 272 | 2.6 | 5.2 | 0.00 | 0.00 | 0.00 | 73 | 1013.1 |
| 20260504035733 | 61 | 305 | 3.5 | 4.3 | 0.00 | 0.00 | 0.00 | 73 | 1013.0 |
| 20260504035233 | 61 | 258 | 0.9 | 2.6 | 0.00 | 0.00 | 0.00 | 73 | 1013.0 |
| 20260504034731 | 61 | 271 | 1.7 | 4.3 | 0.00 | 0.00 | 0.00 | 73 | 1013.0 |
| 20260504034231 | 61 | 223 | 2.6 | 4.3 | 0.00 | 0.00 | 0.00 | 73 | 1013.2 |
| 20260504033732 | 61 | 301 | 1.7 | 5.2 | 0.00 | 0.00 | 0.00 | 74 | 1013.1 |
| 20260504032954 | 61 | 257 | 1.7 | 7.0 | 0.00 | 0.00 | 0.00 | 73 | 1013.3 |
| 20260504032231 | 61 | 230 | 0.9 | 7.0 | 0.00 | 0.00 | 0.00 | 74 | 1013.3 |
| 20260504031732 | 61 | 259 | 1.7 | 5.2 | 0.00 | 0.00 | 0.00 | 74 | 1013.1 |
| 20260504031232 | 61 | 246 | 2.6 | 6.1 | 0.00 | 0.00 | 0.00 | 73 | 1013.0 |
| 20260504030730 | 61 | 248 | 1.7 | 6.1 | 0.00 | 0.00 | 0.00 | 73 | 1013.0 |
| 20260504030230 | 61 | 258 | 1.7 | 4.3 | 0.00 | 0.00 | 0.00 | 73 | 1013.0 |
| 20260504025732 | 62 | 239 | 0.0 | 5.2 | 0.00 | 0.00 | 0.00 | 74 | 1012.9 |
| 20260504025231 | 62 | 304 | 2.6 | 6.1 | 0.00 | 0.00 | 0.00 | 74 | 1012.9 |
| 20260504024953 | 62 | 260 | 1.7 | 6.1 | 0.00 | 0.00 | 0.00 | 73 | 1012.9 |
| 20260504024446 | 62 | 242 | 1.7 | 6.1 | 0.00 | 0.00 | 0.00 | 73 | 1012.8 |
| 20260504023733 | 62 | 281 | 2.6 | 6.1 | 0.00 | 0.00 | 0.00 | 73 | 1012.8 |
| 20260504022729 | 62 | 227 | 2.6 | 5.2 | 0.00 | 0.00 | 0.00 | 72 | 1012.8 |
| 20260504022229 | 62 | 259 | 0.0 | 7.8 | 0.00 | 0.00 | 0.00 | 71 | 1012.9 |
| 20260504021729 | 62 | 272 | 0.9 | 7.8 | 0.00 | 0.00 | 0.00 | 70 | 1012.7 |
| 20260504021231 | 62 | 250 | 2.6 | 5.2 | 0.00 | 0.00 | 0.00 | 69 | 1012.9 |
| 20260504020731 | 62 | 225 | 0.0 | 6.1 | 0.00 | 0.00 | 0.00 | 68 | 1013.0 |
| 20260504020230 | 62 | 215 | 0.0 | 7.0 | 0.00 | 0.00 | 0.00 | 69 | 1012.9 |
| 20260504015729 | 63 | 319 | 2.6 | 7.0 | 0.00 | 0.00 | 0.00 | 69 | 1012.8 |
| 20260504015231 | 63 | 310 | 3.5 | 7.0 | 0.00 | 0.00 | 0.00 | 69 | 1012.7 |
| 20260504014731 | 63 | 275 | 3.5 | 7.8 | 0.00 | 0.00 | 0.00 | 69 | 1012.8 |
| 20260504014451 | 63 | 317 | 3.5 | 8.7 | 0.00 | 0.00 | 0.00 | 69 | 1012.6 |
| 20260504013729 | 63 | 273 | 2.6 | 8.7 | 0.00 | 0.00 | 0.00 | 68 | 1012.6 |
| 20260504013458 | 63 | 307 | 3.5 | 7.8 | 0.00 | 0.00 | 0.00 | 68 | 1012.7 |
| 20260504012730 | 63 | 249 | 2.6 | 7.0 | 0.00 | 0.00 | 0.00 | 69 | 1012.8 |
| 20260504012228 | 63 | 273 | 1.7 | 7.8 | 0.00 | 0.00 | 0.00 | 69 | 1012.7 |
| 20260504011728 | 63 | 222 | 1.7 | 8.7 | 0.00 | 0.00 | 0.00 | 69 | 1012.6 |
| 20260504011229 | 63 | 309 | 2.6 | 8.7 | 0.00 | 0.00 | 0.00 | 69 | 1012.5 |
| 20260504010729 | 63 | 281 | 3.5 | 8.7 | 0.00 | 0.00 | 0.00 | 68 | 1012.4 |
| 20260504010229 | 63 | 251 | 6.1 | 8.7 | 0.00 | 0.00 | 0.00 | 69 | 1012.4 |
| 20260504005727 | 63 | 239 | 3.5 | 8.7 | 0.00 | 0.00 | 0.00 | 68 | 1012.4 |
| 20260504005229 | 63 | 331 | 4.3 | 7.8 | 0.00 | 0.00 | 0.00 | 67 | 1012.4 |
| 20260504004730 | 63 | 347 | 6.1 | 10.4 | 0.00 | 0.00 | 0.00 | 67 | 1012.2 |
| 20260504004443 | 63 | 273 | 5.2 | 10.4 | 0.00 | 0.00 | 0.00 | 68 | 1012.2 |
| 20260504003727 | 63 | 286 | 3.5 | 8.7 | 0.00 | 0.00 | 0.00 | 68 | 1012.0 |
| 20260504003229 | 63 | 264 | 4.3 | 7.8 | 0.00 | 0.00 | 0.00 | 68 | 1012.1 |
| 20260504002227 | 63 | 282 | 4.3 | 11.3 | 0.00 | 0.00 | 0.00 | 68 | 1012.1 |
| 20260504001450 | 64 | 260 | 3.5 | 8.7 | 0.00 | 0.00 | 0.00 | 68 | 1012.0 |
| 20260504000728 | 64 | 304 | 4.3 | 10.4 | 0.00 | 0.00 | 0.00 | 68 | 1012.0 |
| 20260504000226 | 64 | 297 | 3.5 | 10.4 | 0.00 | 0.00 | 0.00 | 67 | 1011.9 |
| 20260503235727 | 64 | 276 | 2.6 | 7.8 | 0.00 | 0.00 | 0.00 | 67 | 1011.9 |
| 20260503235227 | 64 | 323 | 7.0 | 7.8 | 0.00 | 0.00 | 0.00 | 66 | 1011.7 |
| 20260503234227 | 65 | 256 | 3.5 | 11.3 | 0.00 | 0.00 | 0.00 | 64 | 1011.9 |
| 20260503233726 | 65 | 302 | 3.5 | 8.7 | 0.00 | 0.00 | 0.00 | 64 | 1011.6 |
| 20260503233227 | 65 | 315 | 4.3 | 8.7 | 0.00 | 0.00 | 0.00 | 64 | 1011.5 |
| 20260503232727 | 65 | 262 | 3.5 | 10.4 | 0.00 | 0.00 | 0.00 | 63 | 1011.5 |
| 20260503232225 | 65 | 257 | 3.5 | 10.4 | 0.00 | 0.00 | 0.00 | 62 | 1011.7 |
| 20260503231725 | 66 | 306 | 3.5 | 8.7 | 0.00 | 0.00 | 0.00 | 61 | 1011.6 |
| 20260503231227 | 66 | 300 | 6.1 | 8.7 | 0.00 | 0.00 | 0.00 | 61 | 1011.6 |
| 20260503230726 | 66 | 296 | 5.2 | 8.7 | 0.00 | 0.00 | 0.00 | 61 | 1011.8 |
| 20260503230225 | 66 | 273 | 1.7 | 11.3 | 0.00 | 0.00 | 0.00 | 61 | 1011.8 |
| 20260503225726 | 66 | 338 | 7.8 | 11.3 | 0.00 | 0.00 | 0.00 | 61 | 1011.7 |
| 20260503225226 | 66 | 267 | 4.3 | 8.7 | 0.00 | 0.00 | 0.00 | 59 | 1011.9 |
| 20260503224948 | 66 | 325 | 5.2 | 10.4 | 0.00 | 0.00 | 0.00 | 61 | 1012.0 |
| 20260503224225 | 66 | 254 | 1.7 | 10.4 | 0.00 | 0.00 | 0.00 | 59 | 1012.0 |
| 20260503223726 | 66 | 262 | 1.7 | 7.0 | 0.00 | 0.00 | 0.00 | 58 | 1012.0 |
| 20260503223224 | 66 | 354 | 4.3 | 7.8 | 0.00 | 0.00 | 0.00 | 58 | 1012.0 |
| 20260503222725 | 66 | 291 | 3.5 | 13.0 | 0.00 | 0.00 | 0.00 | 58 | 1011.9 |
| 20260503222225 | 66 | 325 | 5.2 | 13.0 | 0.00 | 0.00 | 0.00 | 59 | 1011.9 |
| 20260503221725 | 66 | 349 | 6.1 | 8.7 | 0.00 | 0.00 | 0.00 | 59 | 1012.0 |
| 20260503221224 | 66 | 270 | 3.5 | 7.8 | 0.00 | 0.00 | 0.00 | 60 | 1012.1 |
| 20260503220725 | 66 | 351 | 5.2 | 8.7 | 0.00 | 0.00 | 0.00 | 60 | 1012.0 |
| 20260503220225 | 66 | 273 | 3.5 | 11.3 | 0.00 | 0.00 | 0.00 | 58 | 1012.1 |
| 20260503215724 | 66 | 291 | 4.3 | 12.2 | 0.00 | 0.00 | 0.00 | 58 | 1012.1 |
| 20260503215224 | 66 | 282 | 5.2 | 12.2 | 0.00 | 0.00 | 0.00 | 58 | 1012.3 |